2022-056C (52718 NORAD) Tracking and Keplerian Element Data

This shows tracking and keplerian element data for the satellite.

Feedback or suggestion? Click here.




ElementValue
Catalog52718
Name2022-056C
Epoch Orbit372
Epoch Day166.93274828
Epoch Year2022
RAAN308.5215
Inclination86.0012
Eccentricity0.0013769
Argument of Perigee211.301
Mean Anonmoly148.7352
Mean Motion14.0333568
Decay Rate7.9E-07
L11 52718U 22056C 22166.93274828 .00000079 00000+0 38550-4 0 9998
L22 52718 86.0012 308.5215 0013769 211.3010 148.7352 14.03335680 3725

Live tracking and technical data element details for 2022-056C (NORAD 52718). 2022-056C can be tracked NOW for your location showing map with azimuth and elevation plus other details from your city location.

Track the satellite on the map from your city or location and see movement details for azimuth, elevation, latitude, longitude, range, height, and movement on the map or in text.







IsCatalogInMostPopularTable: catalog: 52718, numindb: 3
Update: records affected: 1



GetName: 52718 2022-056C

Hit Count: updated at: Mon, 27 Jun 2022 05:08:20 GMT